Flag for Kazakhstan Weather past 2 weeks in Qyzylorda, Kazakhstan

Now
72 °F

Sunny.


Feels Like: 76 °F
Forecast: 61 / 83 °F
Wind: 3 mph from South

Location: Kzyl-Orda

Current Time: Aug 31, 2015 at 8:59:16 AM

Latest Report: Aug 31, 2015 at 8:30 AM


Visibility: 10 mi

Pressure: 29.92 "Hg

Humidity: 27%

Dew point: 36 °F

Location of QyzylordaLocation

Historic Weather in Qyzylorda — Graph

°F

Qyzylorda temperature yesterday

Maximum temperature yesterday: 90 °F (at 3:30 PM)
Minimum temperature yesterday: 54 °F (at 6:30 AM)
Average temperature yesterday: 74 °F

Past Weeks' High & Low Weather Summary

 TemperatureHumidityPressure
High109 °F (Aug 18, 4:00 PM)87% (Aug 26, 7:30 AM)30.15 "Hg (Aug 26, 7:30 AM)
Low45 °F (Aug 26, 7:00 AM)5% (Aug 18, 5:00 PM)29.65 "Hg (Aug 18, 7:00 PM)
Average74 °F30%29.89 "Hg
* Reported Aug 16 7:00 AM — Aug 31 7:30 AM, Qyzylorda, Weather by CustomWeather, © 2015

Note: Actual official high and low records may vary slightly from our data, if they occured in-between our weather recording intervals... More about our weather records

Advertising

Qyzylorda weather history for previous 24 hours

 ConditionsComfort  
Time TempWeatherWind HumidityBarometerVisibility
7:30 AM
Mon, Aug 31
57 °FClear.No wind41%29.92 "Hg10 mi
7:00 AM57 °FClear.No wind44%29.92 "Hg10 mi
6:00 AM57 °FClear.No wind44%29.92 "Hg10 mi
5:00 AM57 °FClear.No wind44%29.92 "Hg10 mi
4:00 AM57 °FClear.3 mph41%29.92 "Hg10 mi
3:00 AM61 °FClear.No wind39%29.92 "Hg10 mi
2:00 AM63 °FClear.1 mph34%29.95 "Hg10 mi
1:00 AM64 °FClear.1 mph32%29.95 "Hg10 mi
12:00 AM68 °FClear.1 mph28%29.98 "Hg10 mi
11:30 PM
Sun, Aug 30
68 °FClear.1 mph28%29.98 "Hg10 mi
11:00 PM70 °FClear.1 mph27%29.98 "Hg10 mi
10:30 PM72 °FClear.1 mph25%29.98 "Hg10 mi
10:00 PM72 °FClear.3 mph27%29.98 "Hg10 mi
9:30 PM73 °FClear.1 mph23%29.98 "Hg10 mi
9:00 PM77 °FSunny.No wind24%29.98 "Hg10 mi
8:30 PM79 °FSunny.No wind24%29.98 "Hg10 mi
8:00 PM82 °FSunny.1 mph17%29.98 "Hg10 mi
7:30 PM84 °FSunny.3 mph16%29.98 "Hg10 mi
7:00 PM86 °FSunny.8 mph14%29.98 "Hg10 mi
6:30 PM86 °FPassing clouds.8 mph14%29.98 "HgN/A
6:00 PM88 °FSunny.6 mph13%30.01 "Hg10 mi
5:30 PM88 °FPassing clouds.6 mph13%30.01 "HgN/A
5:00 PM88 °FPassing clouds.8 mph13%30.01 "HgN/A
4:30 PM88 °FPassing clouds.6 mph13%30.01 "HgN/A
4:00 PM88 °FPassing clouds.3 mph13%30.01 "HgN/A
3:30 PM90 °FSunny.3 mph11%30.01 "Hg10 mi
3:00 PM88 °FPassing clouds.6 mph13%30.04 "HgN/A
2:30 PM88 °FPassing clouds.6 mph13%30.04 "HgN/A
2:00 PM86 °FPassing clouds.6 mph13%30.07 "HgN/A
1:30 PM86 °FPassing clouds.6 mph14%30.07 "HgN/A
1:00 PM86 °FPassing clouds.3 mph15%30.07 "HgN/A
12:30 PM86 °FSunny.1 mph14%30.07 "Hg10 mi
12:00 PM84 °FPassing clouds.3 mph18%30.07 "HgN/A
11:30 AM84 °FSunny.1 mph19%30.09 "Hg10 mi
11:00 AM81 °FSunny.1 mph21%30.09 "Hg10 mi
10:30 AM79 °FSunny.No wind24%30.09 "Hg10 mi
10:00 AM73 °FSunny.No wind29%30.09 "Hg10 mi
9:30 AM72 °FSunny.3 mph33%30.09 "Hg10 mi
9:00 AM66 °FSunny.No wind40%30.09 "Hg10 mi
8:30 AM64 °FSunny.No wind40%30.09 "Hg10 mi
8:00 AM57 °FSunny.No wind48%30.09 "Hg10 mi
Weather by CustomWeather, © 2015

See weather overviewHow to use our weather pages